Voltar ao catálogo

STARLINK-38283

AtivoComunicaçõesSSO
NORAD 100311·PAYLOAD·🇺🇸 United States

Lançado Aug 12, 2026 de Vandenberg Space Force Base

Loading…

Próximas Passagens (próximas 24 horas)

TLE

AtualizadoSource: Space-Track

Época: Sep 14, 2026, 15:45 UTC

1 A0311U 26184L   26257.65636326 -.00453737  00000-0 -14725-1 0  9996
2 A0311  97.2826 122.8414 0001513 155.3952 204.7364 15.33842712  6461

Acompanhe STARLINK-38283 em tempo real com AllMySat

Download on the App Store